When you browse on this site, cookies collect data to enhance your experience and personalize the content and advertising you see.
Visit our Privacy Policy to learn more. By continuing to use the site, you agree to this use of cookies and data.
  • In Austria
  • List of Countries
  • For 7 days
  • Water Temperature
  • Weather Map
  • News
  • Weather Widgets
  • user-avatar
    Login

    Hourly Weather Luzhki

    Today, 29 May, Friday

    Time Temperature Precipitation Wind Pressure Humidity
    00:00 +23°C° 0 mm 5 mps 740 mmHg 47%
    01:00 +22°C° 0 mm 4 mps 740 mmHg 49%
    02:00 +21°C° 0 mm 4 mps 740 mmHg 52%
    03:00 +20°C° 0 mm 3 mps 740 mmHg 54%
    04:00 +20°C° 0 mm 4 mps 740 mmHg 49%
    05:00 +21°C° 0 mm 4 mps 740 mmHg 49%
    06:00 +22°C° 0 mm 3 mps 740 mmHg 49%
    07:00 +24°C° 0 mm 3 mps 740 mmHg 50%
    08:00 +26°C° 0 mm 4 mps 740 mmHg 45%
    09:00 +28°C° 0 mm 4 mps 740 mmHg 41%
    10:00 +29°C° 0 mm 4 mps 740 mmHg 37%
    11:00 +30°C° 0 mm 4 mps 740 mmHg 36%
    12:00 +32°C° 0 mm 4 mps 740 mmHg 34%
    13:00 +33°C° 0 mm 4 mps 740 mmHg 32%
    14:00 +34°C° 0 mm 5 mps 740 mmHg 33%
    15:00 +34°C° 0 mm 5 mps 740 mmHg 33%
    16:00 +34°C° 0 mm 6 mps 740 mmHg 34%
    17:00 +30°C° 0 mm 7 mps 740 mmHg 43%
    18:00 +28°C° 0 mm 8 mps 740 mmHg 51%
    19:00 +26°C° 0 mm 9 mps 740 mmHg 60%
    20:00 +23°C° 0 mm 9 mps 740 mmHg 61%
    21:00 +22°C° 0 mm 8 mps 740 mmHg 61%
    22:00 +21°C° 0 mm 8 mps 740 mmHg 62%
    23:00 +20°C° 0 mm 7 mps 741 mmHg 63%

    Tomorrow, 30 May, Saturday

    Time Temperature Precipitation Wind Pressure Humidity
    00:00 +18°C° 0 mm 7 mps 741 mmHg 63%
    01:00 +19°C° 0 mm 6 mps 741 mmHg 63%
    02:00 +17°C° 0 mm 6 mps 741 mmHg 62%
    03:00 +17°C° 0 mm 6 mps 741 mmHg 62%
    04:00 +16°C° 0 mm 6 mps 741 mmHg 61%
    05:00 +17°C° 0 mm 6 mps 741 mmHg 60%
    06:00 +19°C° 0 mm 6 mps 741 mmHg 59%
    07:00 +20°C° 0 mm 6 mps 741 mmHg 58%
    08:00 +22°C° 0 mm 7 mps 741 mmHg 55%
    09:00 +23°C° 0 mm 7 mps 741 mmHg 51%
    10:00 +26°C° 0 mm 7 mps 741 mmHg 48%
    11:00 +27°C° 0 mm 6 mps 741 mmHg 46%
    12:00 +28°C° 0 mm 6 mps 740 mmHg 44%
    13:00 +30°C° 0 mm 6 mps 740 mmHg 42%
    14:00 +32°C° 0 mm 4 mps 740 mmHg 39%
    15:00 +33°C° 0 mm 3 mps 740 mmHg 36%
    16:00 +32°C° 0 mm 2 mps 739 mmHg 34%
    17:00 +31°C° 0 mm 2 mps 739 mmHg 37%
    18:00 +30°C° 0 mm 2 mps 739 mmHg 41%
    19:00 +30°C° 0 mm 2 mps 738 mmHg 44%
    20:00 +28°C° 0 mm 3 mps 738 mmHg 50%
    21:00 +26°C° 0 mm 3 mps 738 mmHg 55%
    22:00 +23°C° 0 mm 4 mps 738 mmHg 61%
    23:00 +22°C° 0 mm 4 mps 738 mmHg 63%

    Day after tomorrow, 31 May, Sunday

    Time Temperature Precipitation Wind Pressure Humidity
    00:00 +21°C° 0 mm 3 mps 738 mmHg 65%
    01:00 +20°C° 0 mm 3 mps 737 mmHg 66%
    02:00 +20°C° 0 mm 2 mps 737 mmHg 67%
    03:00 +21°C° 0 mm 1 mps 737 mmHg 67%
    04:00 +19°C° 0 mm 0 mps 736 mmHg 68%
    05:00 +23°C° 0 mm 1 mps 736 mmHg 62%
    06:00 +25°C° 0 mm 2 mps 736 mmHg 57%
    07:00 +26°C° 0 mm 2 mps 736 mmHg 52%
    08:00 +28°C° 0 mm 4 mps 736 mmHg 45%
    09:00 +30°C° 0 mm 5 mps 736 mmHg 39%
    10:00 +33°C° 0 mm 6 mps 736 mmHg 33%
    11:00 +33°C° 0 mm 6 mps 736 mmHg 35%
    12:00 +34°C° 0 mm 7 mps 735 mmHg 36%
    13:00 +34°C° 0 mm 7 mps 735 mmHg 37%
    14:00 +34°C° 0 mm 7 mps 735 mmHg 37%
    15:00 +34°C° 0 mm 8 mps 735 mmHg 36%
    16:00 +33°C° 0 mm 8 mps 735 mmHg 35%
    17:00 +30°C° 0 mm 7 mps 736 mmHg 41%
    18:00 +28°C° 0 mm 6 mps 736 mmHg 46%
    19:00 +27°C° 0 mm 6 mps 736 mmHg 52%
    20:00 +25°C° 0 mm 5 mps 736 mmHg 54%
    21:00 +23°C° 0 mm 5 mps 737 mmHg 57%
    22:00 +21°C° 0 mm 4 mps 737 mmHg 59%
    23:00 +20°C° 0 mm 4 mps 737 mmHg 61%

    1 June, Monday

    Time Temperature Precipitation Wind Pressure Humidity
    00:00 +19°C° 0 mm 4 mps 737 mmHg 62%
    01:00 +18°C° 0 mm 3 mps 737 mmHg 64%
    02:00 +18°C° 0 mm 3 mps 737 mmHg 66%
    03:00 +17°C° 0 mm 3 mps 737 mmHg 69%
    04:00 +17°C° 0 mm 2 mps 737 mmHg 71%
    05:00 +18°C° 0 mm 3 mps 738 mmHg 67%
    06:00 +19°C° 0 mm 3 mps 738 mmHg 63%
    07:00 +20°C° 0 mm 3 mps 738 mmHg 59%
    08:00 +22°C° 0 mm 3 mps 739 mmHg 53%
    09:00 +23°C° 0 mm 4 mps 739 mmHg 47%
    10:00 +25°C° 0 mm 4 mps 739 mmHg 41%
    11:00 +26°C° 0 mm 5 mps 739 mmHg 39%
    12:00 +27°C° 0 mm 5 mps 739 mmHg 37%
    13:00 +28°C° 0 mm 5 mps 739 mmHg 34%
    14:00 +28°C° 0 mm 5 mps 738 mmHg 35%
    15:00 +28°C° 0 mm 5 mps 738 mmHg 35%
    16:00 +27°C° 0 mm 4 mps 738 mmHg 35%
    17:00 +26°C° 0 mm 4 mps 738 mmHg 40%
    18:00 +25°C° 0 mm 4 mps 739 mmHg 44%
    19:00 +24°C° 0 mm 3 mps 739 mmHg 48%
    20:00 +22°C° 0 mm 3 mps 739 mmHg 51%
    21:00 +20°C° 0 mm 3 mps 739 mmHg 55%
    22:00 +19°C° 0 mm 3 mps 739 mmHg 58%
    23:00 +18°C° 0 mm 2 mps 739 mmHg 59%

    2 June, Tuesday

    Time Temperature Precipitation Wind Pressure Humidity
    00:00 +18°C° 0 mm 2 mps 739 mmHg 61%
    01:00 +17°C° 0 mm 2 mps 739 mmHg 62%
    02:00 +17°C° 0 mm 2 mps 739 mmHg 64%
    03:00 +16°C° 0 mm 2 mps 739 mmHg 66%
    04:00 +16°C° 0 mm 2 mps 739 mmHg 68%
    05:00 +18°C° 0 mm 2 mps 739 mmHg 64%
    06:00 +19°C° 0 mm 2 mps 740 mmHg 60%
    07:00 +21°C° 0 mm 2 mps 740 mmHg 56%
    08:00 +23°C° 0 mm 2 mps 740 mmHg 50%
    09:00 +25°C° 0 mm 3 mps 740 mmHg 43%
    10:00 +26°C° 0 mm 3 mps 739 mmHg 37%
    11:00 +27°C° 0 mm 3 mps 739 mmHg 34%
    12:00 +28°C° 0 mm 3 mps 739 mmHg 30%
    13:00 +29°C° 0 mm 3 mps 739 mmHg 27%
    14:00 +29°C° 0 mm 3 mps 739 mmHg 26%
    15:00 +30°C° 0 mm 2 mps 739 mmHg 25%
    16:00 +30°C° 0 mm 2 mps 738 mmHg 24%
    17:00 +29°C° 0 mm 2 mps 738 mmHg 27%
    18:00 +28°C° 0 mm 2 mps 738 mmHg 31%
    19:00 +27°C° 0 mm 2 mps 738 mmHg 35%
    20:00 +26°C° 0 mm 3 mps 738 mmHg 37%
    21:00 +24°C° 0 mm 3 mps 738 mmHg 39%
    22:00 +22°C° 0 mm 4 mps 737 mmHg 41%
    23:00 +22°C° 0 mm 4 mps 737 mmHg 42%

    3 June, Wednesday

    Time Temperature Precipitation Wind Pressure Humidity
    00:00 +21°C° 0 mm 5 mps 737 mmHg 43%
    01:00 +21°C° 0 mm 5 mps 737 mmHg 44%
    02:00 +21°C° 0 mm 5 mps 736 mmHg 44%
    03:00 +20°C° 0 mm 5 mps 736 mmHg 45%
    04:00 +20°C° 0 mm 5 mps 736 mmHg 46%
    05:00 +21°C° 0.2 mm 5 mps 736 mmHg 46%
    06:00 +22°C° 0.2 mm 6 mps 735 mmHg 46%
    07:00 +23°C° 0.2 mm 6 mps 735 mmHg 46%
    08:00 +25°C° 0.5 mm 5 mps 735 mmHg 45%
    09:00 +26°C° 0.5 mm 4 mps 735 mmHg 44%
    10:00 +27°C° 0.5 mm 3 mps 735 mmHg 43%
    11:00 +29°C° 0 mm 3 mps 735 mmHg 40%
    12:00 +31°C° 0 mm 3 mps 735 mmHg 37%
    13:00 +33°C° 0 mm 4 mps 734 mmHg 34%
    14:00 +34°C° 0 mm 4 mps 734 mmHg 33%
    15:00 +34°C° 0 mm 4 mps 734 mmHg 32%
    16:00 +34°C° 0 mm 4 mps 734 mmHg 31%
    17:00 +33°C° 0 mm 5 mps 734 mmHg 37%
    18:00 +30°C° 0 mm 6 mps 734 mmHg 43%
    19:00 +29°C° 0 mm 7 mps 734 mmHg 49%
    20:00 +27°C° 0 mm 6 mps 734 mmHg 58%
    21:00 +24°C° 0 mm 6 mps 735 mmHg 66%
    22:00 +22°C° 0 mm 6 mps 735 mmHg 74%
    23:00 +21°C° 0 mm 5 mps 735 mmHg 77%
    Show more